{"data":{"norad_id":46027,"epoch":"2026-09-19T18:51:51.927552Z","epoch_age_seconds":83600,"freshness":"FRESH","line1":"1 46027U 20055A   26262.78601768  .00016250  00000+0  82382-3 0  9991","line2":"2 46027  53.0625 325.9919 0002219   8.2469 351.8561 15.17103942338278","mean_motion":15.17103942,"eccentricity":0.0002219,"inclination_deg":53.0625,"raan_deg":325.9919,"arg_perigee_deg":8.2469,"mean_anomaly_deg":351.8561,"bstar":0.00082382,"rev_number":33827,"period_min":94.917688902821,"perigee_km":513.0690570301,"apogee_km":516.12805306943,"semimajor_km":6892.7355550498,"source":"CELESTRAK","updated_at":"2026-09-20T09:00:38.459174Z"}}